Rexburg, ID

6:23 PM MDT on October 20, 2017 (GMT -0600)
Rexburg-Madison County

Weather History for KRXE - July, 2014

Change the Weather History Date:

Monday, July 14, 2014

  Actual Average Record
Temperature  
Mean Temperature 73 °F 67 °F  
Max Temperature 86 °F 84 °F 95 °F (2017)
Min Temperature 59 °F 50 °F 44 °F (2016)
Degree Days  
Heating Degree Days 0 1  
Month to date heating degree days 3 22  
Since 1 June heating degree days 158 194  
Since 1 July heating degree days 3 22  
Cooling Degree Days 8 3  
Month to date cooling degree days 85 26  
Year to date cooling degree days 88 48  
Since 1 June cooling degree days 88 44  
Growing Degree Days 22 (Base 50)    
Moisture  
Dew Point 52 °F    
Average Humidity 54    
Maximum Humidity 78    
Minimum Humidity 29    
Precipitation  
Precipitation 0.06 in 0.02 in 0.26 in (2012)
Month to date precipitation 0.06 0.40  
Year to date precipitation 5.85 7.64  
Sea Level Pressure  
Sea Level Pressure 30.03 in    
Wind  
Wind Speed 10 mph (ENE)    
Max Wind Speed 28 mph    
Max Gust Speed 36 mph    
Visibility 10 miles    
Events Thunderstorm    
T = Trace of Precipitation, MM = Missing Value Source: NWS Daily Summary

Daily Weather History Graph

Daily Weather History Graph

Search for Another Location

Airport or City:

Trip Planner

Search our weather history database for the weather conditions in past years. The results will help you decide how hot, cold, wet, or windy it might be!

Date:

Astronomy

Jul. 14, 2014 Rise Set
Actual Time 5:58 AM MDT 9:07 PM MDT
Civil Twilight 5:23 AM MDT 9:42 PM MDT
Nautical Twilight 4:38 AM MDT 10:27 PM MDT
Astronomical Twilight 3:43 AM MDT 11:21 PM MDT
Moon 10:31 PM MDT (7/14) 8:52 AM MDT (7/14)
Length of Visible Light 16h 19m
Length of Day
15h 09m
Waning Gibbous, 92% of the Moon is Illuminated
Jul 14
Waning Gibbous
Jul 18
Last Quarter
Jul 26
New
Aug 3
First Quarter
Aug 10
Full

Hourly Weather History & Observations

Time (MDT) Temp. Heat Index Dew Point Humidity Pressure Visibility Wind Dir Wind Speed Gust Speed Precip Events Conditions
12:53 AM 64.9 °F - 55.0 °F 70% 30.06 in 10.0 mi NE 4.6 mph - N/A   Clear
1:53 AM 62.1 °F - 54.0 °F 75% 30.05 in 10.0 mi ENE 8.1 mph - N/A   Clear
2:53 AM 61.0 °F - 53.1 °F 75% 30.05 in 10.0 mi NE 9.2 mph - N/A   Clear
3:53 AM 59.0 °F - 52.0 °F 78% 30.06 in 10.0 mi ENE 6.9 mph - N/A   Clear
4:53 AM 60.1 °F - 51.1 °F 72% 30.05 in 10.0 mi ENE 8.1 mph - N/A   Clear
5:53 AM 60.1 °F - 50.0 °F 69% 30.05 in 10.0 mi ENE 9.2 mph - N/A   Clear
7:53 AM 66.0 °F - 50.0 °F 56% 30.08 in 10.0 mi NE 3.5 mph - N/A   Clear
9:53 AM 73.0 °F - 55.9 °F 55% 30.08 in 10.0 mi ENE 6.9 mph - N/A   Clear
10:53 AM 79.0 °F - 53.1 °F 40% 30.06 in 10.0 mi ENE 9.2 mph - N/A   Clear
11:53 AM 84.9 °F - 52.0 °F 32% 30.05 in 10.0 mi NE 11.5 mph - N/A   Clear
12:53 PM 81.0 °F 80.4 °F 53.1 °F 38% 30.08 in 10.0 mi NE 13.8 mph 21.9 mph N/A   Scattered Clouds
2:53 PM 84.0 °F - 48.9 °F 29% 30.03 in 10.0 mi ENE 20.7 mph 31.1 mph N/A   Clear
4:53 PM 79.0 °F - 48.9 °F 35% 30.01 in 10.0 mi ENE 16.1 mph 23.0 mph N/A   Clear
5:53 PM 75.9 °F - 51.1 °F 42% 30.00 in 10.0 mi NE 11.5 mph - N/A   Clear
6:46 PM 71.1 °F - 55.9 °F 59% 30.12 in 10.0 mi ENE 10.4 mph - 0.06 in Thunderstorm Scattered Clouds
6:53 PM 72.0 °F - 55.9 °F 57% 30.02 in 10.0 mi ENE 6.9 mph - 0.06 in Thunderstorm Thunderstorm
7:22 PM 78.1 °F - 51.1 °F 39% 30.08 in 10.0 mi Variable 5.8 mph - 0.00 in   Scattered Clouds
7:53 PM 77.0 °F - 55.0 °F 47% 29.97 in 10.0 mi South 12.7 mph 24.2 mph 0.00 in   Clear
8:53 PM 72.0 °F - 50.0 °F 46% 29.96 in 10.0 mi SSE 15.0 mph 27.6 mph N/A   Clear
9:53 PM 73.0 °F - 48.0 °F 41% 29.94 in 10.0 mi SSE 16.1 mph 26.5 mph N/A   Clear
10:53 PM 71.1 °F - 48.0 °F 44% 29.97 in 10.0 mi East 6.9 mph - N/A   Clear
11:53 PM 68.0 °F - 51.1 °F 55% 29.96 in 10.0 mi NE 5.8 mph - N/A   Clear